This is the latest recevied weather packets stored in our database for station/object KN6WGU. If no packets are shown the sender has not sent any weather packets the latest 10 day(s).
| Time | Temp. | Humidity | Pressure | Rain* | Wind** | Luminosity | Snow |
|---|---|---|---|---|---|---|---|
| 1787399554 | 18.89° C | 99% | 1007 hPa | 0 mm | - | 36 W/m² | - |
| 1787399253 | 18.89° C | 99% | 1006.8 hPa | 0 mm | - | 33 W/m² | - |
| 1787398948 | 18.33° C | 99% | 1006.8 hPa | 0 mm | - | 30 W/m² | - |
| 1787398643 | 18.33° C | 99% | 1006.7 hPa | 0 mm | - | 27 W/m² | - |
| 1787398340 | 18.33° C | 99% | 1006.7 hPa | 0 mm | - | 23 W/m² | - |
| 1787398035 | 18.33° C | 99% | 1006.7 hPa | 0 mm | - | 21 W/m² | - |
| 1787397735 | 18.33° C | 99% | 1006.8 hPa | 0 mm | - | 18 W/m² | - |
| 1787397430 | 18.33° C | 99% | 1006.7 hPa | 0 mm | - | 16 W/m² | - |
| 1787397125 | 18.33° C | 99% | 1006.5 hPa | 0 mm | - | 11 W/m² | - |
| 1787396820 | 18.33° C | 99% | 1006.5 hPa | 0 mm | - | 8 W/m² | - |
| 1787396517 | 18.33° C | 99% | 1006.5 hPa | 0 mm | - | 6 W/m² | - |
| 1787396216 | 18.33° C | 99% | 1006.6 hPa | 0 mm | - | 4 W/m² | - |
| 1787395911 | 18.33° C | 99% | 1006.5 hPa | 0 mm | - | 3 W/m² | - |
| 1787395611 | 18.33° C | 99% | 1006.3 hPa | 0 mm | - | 2 W/m² | - |
| 1787395306 | 18.33° C | 99% | 1006.3 hPa | 0 mm | - | 1 W/m² | - |
| 1787395006 | 18.33° C | 99% | 1006.4 hPa | 0 mm | - | 1 W/m² | - |
| 1787394703 | 18.33° C | 99% | 1006.2 hPa | 0 mm | - | 0 W/m² | - |
| 1787394398 | 18.33° C | 99% | 1006.6 hPa | 0 mm | - | 0 W/m² | - |
| 1787394093 | 17.78° C | 99% | 1006.3 hPa | 0 mm | - | 0 W/m² | - |
| 1787393787 | 17.78° C | 99% | 1006.4 hPa | 0 mm | - | 0 W/m² | - |
| 1787393483 | 17.78° C | 99% | 1006.5 hPa | 0 mm | - | 0 W/m² | - |
| 1787393179 | 17.78° C | 99% | 1006.4 hPa | 0 mm | - | 0 W/m² | - |
| 1787392875 | 17.78° C | 99% | 1006.5 hPa | 0 mm | - | 0 W/m² | - |
| 1787392573 | 17.78° C | 99% | 1006.7 hPa | 0 mm | - | 0 W/m² | - |
| 1787392268 | 17.78° C | 99% | 1006.8 hPa | 0 mm | - | 0 W/m² | - |
* Rain latest hour (hover to see other rain measurements)
** Current wind speed in m/s (hover to see current wind gust speed)